Beverly, MA

8:25 PM EDT on August 21, 2017 (GMT -0400)
Beverly Municipal

Weather History for KBVY - August, 2014

Change the Weather History Date:

Wednesday, August 20, 2014

  Actual Average Record
Temperature  
Mean Temperature 64 °F -  
Max Temperature 75 °F 77 °F 93 °F (1983)
Min Temperature 52 °F 57 °F 50 °F (2008)
Degree Days  
Heating Degree Days 2    
Growing Degree Days 14 (Base 50)    
Moisture  
Dew Point 55 °F    
Average Humidity 77    
Maximum Humidity 97    
Minimum Humidity 55    
Precipitation  
Precipitation 0.00 in - - ()
Sea Level Pressure  
Sea Level Pressure 30.00 in    
Wind  
Wind Speed 3 mph (ESE)    
Max Wind Speed 12 mph    
Max Gust Speed -    
Visibility 9 miles    
Events Fog    
Averages and records for this station are not official NWS values.
T = Trace of Precipitation, MM = Missing Value Source: NWS Daily Summary

Daily Weather History Graph

Daily Weather History Graph

Search for Another Location

Airport or City:

Trip Planner

Search our weather history database for the weather conditions in past years. The results will help you decide how hot, cold, wet, or windy it might be!

Date:

Astronomy

Aug. 20, 2014 Rise Set
Actual Time 5:55 AM EDT 7:37 PM EDT
Civil Twilight 5:25 AM EDT 8:07 PM EDT
Nautical Twilight 4:49 AM EDT 8:43 PM EDT
Astronomical Twilight 4:10 AM EDT 9:22 PM EDT
Moon 1:30 AM EDT (8/20) 4:22 PM EDT (8/20)
Length of Visible Light 14h 41m
Length of Day
13h 41m
Waning Crescent, 21% of the Moon is Illuminated
Aug 20
Waning Crescent
Aug 25
New
Sep 2
First Quarter
Sep 8
Full
Sep 15
Last Quarter

Hourly Weather History & Observations

Time (EDT) Temp. Dew Point Humidity Pressure Visibility Wind Dir Wind Speed Gust Speed Precip Events Conditions
12:53 AM 57.9 °F 55.0 °F 90% 29.95 in 10.0 mi Calm Calm - N/A   Clear
1:53 AM 55.0 °F 53.1 °F 93% 29.95 in 10.0 mi Calm Calm - N/A   Clear
2:53 AM 55.0 °F 52.0 °F 89% 29.94 in 5.0 mi NNW 4.6 mph - N/A   Clear
3:53 AM 54.0 °F 52.0 °F 93% 29.95 in 10.0 mi Calm Calm - N/A   Clear
4:53 AM 53.1 °F 51.1 °F 93% 29.96 in 9.0 mi NNW 3.5 mph - N/A   Clear
5:53 AM 52.0 °F 51.1 °F 97% 29.97 in 9.0 mi SW 3.5 mph - N/A   Clear
6:53 AM 55.9 °F 52.0 °F 87% 29.99 in 10.0 mi Calm Calm - N/A   Clear
7:53 AM 62.1 °F 55.9 °F 80% 29.99 in 10.0 mi NE 3.5 mph - N/A   Clear
8:53 AM 68.0 °F 57.0 °F 68% 29.99 in 10.0 mi Calm Calm - N/A   Clear
9:53 AM 72.0 °F 59.0 °F 64% 30.00 in 10.0 mi NE 3.5 mph - N/A   Clear
10:53 AM 73.9 °F 57.9 °F 57% 30.01 in 10.0 mi Variable 4.6 mph - N/A   Clear
11:53 AM 75.0 °F 61.0 °F 62% 30.01 in 10.0 mi SE 9.2 mph - N/A   Clear
12:53 PM 73.9 °F 57.9 °F 57% 30.01 in 10.0 mi ESE 11.5 mph - N/A   Clear
1:53 PM 75.0 °F 59.0 °F 57% 30.01 in 10.0 mi SE 9.2 mph - N/A   Clear
2:53 PM 73.0 °F 57.0 °F 57% 30.01 in 10.0 mi SE 11.5 mph - N/A   Clear
3:53 PM 73.0 °F 55.9 °F 55% 30.00 in 10.0 mi ESE 9.2 mph - N/A   Clear
4:53 PM 71.1 °F 55.0 °F 57% 30.01 in 10.0 mi ESE 8.1 mph - N/A   Clear
5:53 PM 71.1 °F 54.0 °F 55% 30.02 in 10.0 mi ESE 4.6 mph - N/A   Clear
6:53 PM 66.9 °F 55.9 °F 68% 30.02 in 10.0 mi SE 3.5 mph - N/A   Clear
7:53 PM 64.0 °F 55.9 °F 75% 30.03 in 10.0 mi ESE 3.5 mph - N/A   Clear
8:53 PM 60.1 °F 55.9 °F 86% 30.04 in 10.0 mi Calm Calm - N/A   Clear
9:53 PM 55.9 °F 54.0 °F 93% 30.04 in 10.0 mi Calm Calm - N/A   Clear
10:53 PM 55.9 °F 53.1 °F 90% 30.04 in 10.0 mi NNW 3.5 mph - N/A   Clear
11:42 PM 55.0 °F 53.1 °F 93% 30.06 in 2.5 mi Calm Calm - N/A   Scattered Clouds
11:44 PM 55.0 °F 53.1 °F 93% 30.06 in 0.5 mi Calm Calm - N/A Fog Fog
11:53 PM 55.0 °F 53.1 °F 93% 30.04 in 0.2 mi Calm Calm - N/A Fog Fog